Location: Unspecified
(35.6961°N, 0.0000°E)
Time: 22:36:20
(UTC+00:00)

Vanguard 3 - Pass Details

Date: 03 June 2019
Orbit: 508 x 3263 km, 33.3° (Epoch: 16 June)

Event Time Altitude Azimuth Distance (km) Brightness Sun altitude
Rises 01:45:07 0° 260° (W) 4,753 - -26.7°
Reaches altitude 10° 01:50:30 10° 236° (SW) 4,357 - -26.2°
Maximum altitude 01:55:30 13° 211° (SSW) 4,569 - -25.7°
Drops below altitude 10° 02:01:29 10° 188° (S) 5,345 - -25.1°
Sets 02:10:10 0° 167° (SSE) 6,892 - -24.2°
Exits shadow 02:10:13 - 167° (SSE) 6,902 11.5 -24.1°
